GW6542 Weather Reports


time (UTC)temp
F
wind
direction
speed
knots
gust
knots
rain 1hr
in
rain 24hr
in
rain mn
in
humidity
%
barometer
mb
20260507191603 62 187 2.6 7.8 0.00 0.00 0.00 60 1020.1
20260507184555 60 186 1.7 5.2 0.00 0.00 0.00 63 1020.2
20260507183107 60 333 2.6 6.1 0.00 0.00 0.00 66 1020.4
20260507181556 60 19 1.7 5.2 0.00 0.00 0.00 64 1020.3
20260507180056 59 344 4.3 7.8 0.00 0.00 0.00 68 1020.5
20260507174608 59 46 4.3 8.7 0.00 0.00 0.00 66 1020.7
20260507173132 59 338 1.7 7.8 0.00 0.00 0.00 67 1020.6
20260507171604 59 49 4.3 7.0 0.00 0.00 0.00 66 1020.6
20260507170055 58 54 1.7 5.2 0.00 0.00 0.00 68 1020.5
20260507164607 58 18 3.5 7.0 0.00 0.00 0.00 69 1020.6
20260507163110 57 11 1.7 5.2 0.00 0.00 0.00 70 1020.5
20260507161617 57 344 3.5 7.0 0.00 0.00 0.00 70 1020.6
20260507160116 56 57 3.5 5.2 0.00 0.00 0.00 71 1020.6
20260507153056 55 9 4.3 7.8 0.00 0.00 0.00 71 1020.8
20260507151553 55 19 2.6 6.1 0.00 0.00 0.00 73 1020.9
20260507150059 55 38 1.7 4.3 0.00 0.00 0.00 74 1021.0
20260507144601 54 30 3.5 6.1 0.00 0.00 0.00 74 1021.0
20260507143059 54 360 2.6 4.3 0.00 0.00 0.00 76 1020.9
20260507141602 54 21 1.7 3.5 0.00 0.00 0.00 78 1020.8
20260507140109 54 9 1.7 2.6 0.00 0.00 0.00 77 1020.6
20260507134550 54 352 0.9 1.7 0.00 0.00 0.00 78 1020.6
20260507133052 54 30 0.9 1.7 0.00 0.00 0.00 78 1020.5
20260507131552 54 32 1.7 1.7 0.00 0.00 0.00 78 1020.5
20260507130050 54 0 0.0 0.0 0.00 0.00 0.00 77 1020.6
20260507124549 54 9 1.7 2.6 0.00 0.00 0.00 78 1020.6
20260507123052 54 33 0.9 1.7 0.00 0.00 0.00 78 1020.7
20260507121550 54 42 0.9 1.7 0.00 0.00 0.00 78 1020.7
20260507120051 54 32 0.9 2.6 0.00 0.00 0.00 77 1020.8
20260507114556 54 0 0.0 0.9 0.00 0.00 0.00 78 1020.9
20260507113052 54 23 0.9 2.6 0.00 0.00 0.00 78 1021.0
20260507111600 54 39 0.9 2.6 0.00 0.00 0.00 77 1021.0
20260507110052 54 38 1.7 4.3 0.00 0.00 0.00 77 1021.0
20260507104555 54 36 3.5 5.2 0.00 0.00 0.00 75 1021.1
20260507103054 55 44 2.6 4.3 0.00 0.00 0.00 79 1021.2
20260507101607 55 32 1.7 4.3 0.00 0.00 0.00 80 1021.3
20260507100052 55 9 1.7 2.6 0.00 0.00 0.00 80 1021.4
20260507094555 55 343 0.9 2.6 0.00 0.00 0.00 80 1021.4
20260507093100 55 11 2.6 3.5 0.00 0.00 0.00 77 1021.5
20260507091552 55 350 1.7 2.6 0.00 0.00 0.00 78 1021.6
20260507090113 55 0 0.0 0.0 0.00 0.00 0.00 82 1021.7
20260507084555 55 0 0.0 0.0 0.00 0.00 0.00 81 1021.8
20260507083053 55 0 0.0 0.0 0.00 0.00 0.00 81 1021.7
20260507081559 55 0 0.0 0.0 0.00 0.00 0.00 80 1021.7
20260507080055 55 0 0.0 0.0 0.00 0.00 0.00 80 1021.7
20260507074555 55 0 0.0 0.0 0.00 0.00 0.00 80 1021.7
20260507073052 55 237 0.9 1.7 0.00 0.00 0.00 81 1021.7
20260507071548 54 253 1.7 2.6 0.00 0.00 0.00 80 1021.6
20260507070056 54 0 0.0 0.9 0.00 0.00 0.00 80 1021.5
20260507064607 54 0 0.0 1.7 0.00 0.00 0.00 81 1021.6
20260507063055 54 246 0.9 2.6 0.00 0.00 0.00 81 1021.7
20260507061553 54 244 1.7 2.6 0.00 0.00 0.00 81 1021.7
20260507060058 54 246 1.7 3.5 0.00 0.00 0.00 81 1021.7
20260507054609 54 238 3.5 6.1 0.00 0.00 0.00 80 1021.5
20260507053059 54 257 4.3 7.0 0.00 0.00 0.00 79 1021.5
20260507051555 54 242 2.6 4.3 0.00 0.00 0.00 80 1021.6
20260507050056 54 241 2.6 4.3 0.00 0.00 0.00 79 1021.5
20260507044558 55 244 1.7 6.1 0.00 0.00 0.00 79 1021.5
20260507043101 55 241 3.5 5.2 0.00 0.00 0.00 79 1021.3
20260507041603 55 248 3.5 6.1 0.00 0.00 0.00 78 1021.1
20260507040058 55 246 3.5 6.1 0.00 0.00 0.00 77 1021.0
20260507034556 56 259 2.6 7.8 0.00 0.00 0.00 76 1020.8
20260507033047 57 257 5.2 10.4 0.00 0.00 0.00 75 1020.4
20260507031551 57 248 7.0 10.4 0.00 0.00 0.00 75 1020.2
20260507030058 58 254 5.2 8.7 0.00 0.00 0.00 73 1020.1
20260507024604 59 248 5.2 9.6 0.00 0.00 0.00 72 1019.9
20260507023110 60 251 7.8 12.2 0.00 0.00 0.00 70 1020.0
20260507021556 61 245 7.8 11.3 0.00 0.00 0.00 69 1020.0
20260507020056 62 246 6.1 11.3 0.00 0.00 0.00 68 1019.9
20260507014608 63 255 6.1 13.9 0.00 0.00 0.00 68 1020.0
20260507013112 63 239 6.1 11.3 0.00 0.00 0.00 66 1019.9
20260507011555 64 252 7.0 13.0 0.00 0.00 0.00 64 1020.0
20260507010052 65 265 7.0 10.4 0.00 0.00 0.00 62 1020.0
20260507004553 66 287 7.0 12.2 0.00 0.00 0.00 63 1020.0
20260507003056 67 294 7.0 12.2 0.00 0.00 0.00 60 1020.0
20260507001614 68 246 6.1 11.3 0.00 0.00 0.00 59 1020.0
20260507000052 68 246 7.0 12.2 0.00 0.00 0.00 60 1020.0
20260506234555 68 282 7.8 12.2 0.00 0.00 0.00 60 1020.1
20260506233049 69 286 7.0 13.0 0.00 0.00 0.00 59 1020.0
20260506231551 70 315 6.1 9.6 0.00 0.00 0.00 58 1019.9
20260506230052 70 238 3.5 8.7 0.00 0.00 0.00 58 1020.0
20260506224557 70 203 3.5 7.8 0.00 0.00 0.00 58 1020.0
20260506223111 71 285 1.7 9.6 0.00 0.00 0.00 57 1020.2
20260506221555 70 196 0.0 7.8 0.00 0.00 0.00 58 1020.3
20260506220051 70 223 2.6 7.0 0.00 0.00 0.00 58 1020.3
20260506214558 69 203 2.6 7.0 0.00 0.00 0.00 59 1020.5
20260506213102 68 238 2.6 7.0 0.00 0.00 0.00 59 1020.5
20260506211557 68 138 2.6 7.8 0.00 0.00 0.00 60 1020.6
20260506210109 67 218 2.6 9.6 0.00 0.00 0.00 62 1020.6
20260506204555 67 174 3.5 7.0 0.00 0.00 0.00 63 1020.8
20260506203101 65 325 1.7 7.0 0.00 0.00 0.00 67 1020.9
20260506201553 65 134 1.7 7.8 0.00 0.00 0.00 68 1020.9
20260506200136 65 255 0.9 6.1 0.00 0.00 0.00 70 1021.1
20260506194558 63 182 1.7 6.1 0.00 0.00 0.00 72 1021.0
20260506193052 63 173 2.6 7.0 0.00 0.00 0.00 72 1021.0